Temp
24 24 24 24 24 25 25 25 25 26 26 26 26 25 25 26 26 26 25 25 25 25 25 25 25 25 24 24 24 24 24 24 25 25 25 25 25 25 25 24 25 25
24 24 24 24 24 24 25 25 25 25 26 26 26 26 26 26 26 26 25 25 25 25 25 25 25 25 25 24 24 24 24 24 24 24 24 25 25 25 25 25 24 24
24 24 24 24 24 24 25 25 25 25 26 26 26 26 26 26 26 26 26 25 25 25 25 25 25 25 25 24 24 24 24 24 24 24 24 24 24 25 25 25 24 24
24 24 24 24 24 25 25 25 25 25 25 25 26 26 26 26 26 26 26 26 25 25 25 25 25 25 25 24 24 24 24 24 25 24 24 24 24 24 25 25 25 24
24 24 24 24 24 24 24 24 24 25 25 25 25 26 25 26 26 26 26 26 26 25 25 25 25 25 25 25 24 24 24 24 24 24 24 24 24 24 24 25 24 24
24 24 24 24 24 24 24 24 24 24 25 25 25 25 25 26 26 26 26 26 26 25 25 25 25 25 25 25 24 24 24 24 24 24 24 24 24 24 24 24 24 24
24 24 24 24 24 24 24 24 24 24 25 25 25 25 25 25 26 26 26 26 26 26 25 25 25 25 25 25 24 24 24 24 24 24 24 24 24 24 24 24 24 24
24 24 24 24 24 24 24 24 24 24 24 25 25 25 25 25 26 26 26 26 26 26 25 25 25 25 25 25 24 24 24 24 24 24 24 24 24 24 24 24 24 24
24 24 24 24 24 24 24 24 24 24 24 25 25 25 25 25 26 26 26 26 26 26 26 25 25 25 25 25 25 24 24 24 24 24 24 24 24 24 24 24 24 24
24 24 24 24 24 24 24 24 24 24 24 25 25 25 25 25 26 26 26 26 26 25 25 25 25 25 25 25 25 25 25 24 24 24 24 24 24 24 24 24 24 24
24 24 24 24 24 24 24 24 24 24 24 24 25 25 25 25 25 26 25 26 26 26 26 25 25 25 25 25 25 25 25 25 24 24 24 24 24 24 24 24 24 24
24 24 24 24 24 24 24 24 24 24 24 24 25 25 25 25 25 25 25 26 26 26 26 26 25 25 25 25 25 25 25 25 25 24 24 24 24 24 24 24 24 24
24 24 24 24 24 24 24 24 24 24 24 24 25 25 25 25 25 25 25 25 26 26 26 26 26 25 25 25 25 25 25 24 25 24 24 24 24 24 24 24 24 24
24 24 24 24 24 24 24 24 24 24 24 24 25 25 25 25 25 25 25 25 25 26 26 26 25 25 25 25 25 25 25 24 24 24 24 24 24 24 24 24 24 24
25 24 24 24 24 24 24 24 24 24 24 24 25 25 25 25 25 25 25 25 25 26 26 25 25 25 25 25 25 25 25 25 24 24 24 24 24 24 24 24 24 24
25 25 24 24 24 24 24 24 24 24 24 25 25 25 25 25 25 25 25 25 25 25 26 25 25 25 26 26 26 25 25 25 25 24 24 24 24 24 24 24 24 24
25 25 25 24 24 24 24 24 24 24 25 25 25 25 25 25 25 25 26 26 26 26 26 25 25 26 26 26 26 26 26 25 25 25 24 24 24 24 24 24 24 24
25 25 25 25 25 25 24 24 24 24 25 25 25 25 25 25 25 26 26 26 26 26 26 26 26 26 26 26 26 26 26 25 25 25 24 24 24 24 24 24 24 24
26 25 25 25 25 25 25 25 24 25 25 25 25 25 25 25 25 26 26 26 26 26 26 26 26 26 26 26 26 26 26 26 25 25 25 25 24 24 24 24 24 24
26 26 25 25 25 25 25 25 25 25 25 25 25 25 25 25 26 26 26 26 26 26 26 26 26 26 26 26 26 26 26 26 25 25 25 25 25 25 24 24 24 24
26 26 26 25 25 25 25 25 25 25 25 25 25 25 26 26 26 26 26 26 26 26 26 26 26 26 26 26 26 26 26 26 26 25 25 25 25 25 25 25 25 25
26 26 26 26 26 25 25 25 25 25 25 25 25 26 26 26 26 26 26 26 26 26 26 26 27 27 27 27 27 27 26 26 26 25 25 25 25 25 25 25 25 25
27 26 26 26 26 26 25 25 25 25 25 25 25 26 26 26 26 26 26 26 26 26 26 26 27 27 27 27 27 27 26 26 26 25 25 25 25 25 25 25 25 25
27 27 27 26 26 26 26 26 26 25 25 25 25 26 26 26 26 26 26 26 26 26 26 26 27 27 27 27 27 27 27 26 26 25 25 25 25 25 25 25 25 25
28 27 27 27 26 26 26 26 26 26 26 26 26 26 26 26 26 26 26 27 27 27 27 26 26 27 27 27 27 27 27 27 26 25 25 24 25 25 25 25 25 25
28 28 27 27 27 27 26 26 26 26 26 26 26 26 26 26 27 27 27 27 27 27 27 27 27 27 27 27 27 27 27 27 26 26 25 25 25 25 25 25 25 25
Height
794 798 800 802 804 805 806 808 810 813 815 816 818 819 821 823 825 827 828 830 832 833 834 836 837 839 840 841 842 843 844 844 845 846 846 847 847 848 848 849 850 850
791 795 798 800 802 804 805 807 808 810 812 814 816 817 819 822 824 825 827 828 830 831 833 834 836 837 838 840 841 842 842 843 844 844 845 846 846 846 847 848 849 849
788 792 795 797 799 801 803 805 807 809 811 812 814 816 818 820 822 823 825 827 828 830 831 833 834 835 837 838 839 840 841 841 842 843 844 844 845 846 846 847 848 848
785 788 791 794 796 799 801 803 805 806 808 810 812 814 816 818 820 822 823 825 826 828 829 831 832 834 835 836 837 838 839 839 840 841 842 843 844 844 845 846 847 847
782 785 788 791 793 796 799 801 802 804 806 808 809 812 814 816 818 819 821 823 824 826 827 829 830 832 833 834 835 836 837 838 839 840 840 841 842 843 844 845 845 846
780 782 785 788 791 794 796 798 800 802 803 805 808 810 811 813 815 817 818 820 821 823 825 826 828 829 831 832 833 834 835 836 837 838 839 839 840 841 842 843 843 843
777 779 782 786 788 791 794 795 798 799 801 803 805 807 809 810 812 814 815 817 819 820 822 823 825 827 828 830 831 832 833 834 835 836 836 837 838 839 840 840 841 841
773 776 779 783 786 788 791 793 795 796 798 801 802 804 806 807 809 810 812 814 816 817 819 820 822 824 825 827 828 829 830 831 832 833 834 834 835 836 836 837 838 838
770 773 776 779 782 785 787 789 792 794 796 798 799 801 803 804 806 807 809 811 813 814 816 817 819 821 823 824 825 826 827 828 829 830 830 831 832 832 833 834 835 835
768 770 773 776 779 781 784 786 789 791 793 795 796 798 800 802 803 805 807 808 810 811 813 814 816 817 819 821 822 823 824 824 825 826 827 827 828 828 830 831 831 831
765 767 770 772 775 778 781 784 787 789 791 792 794 795 797 798 800 802 804 805 807 808 809 811 812 814 816 817 818 819 820 821 822 823 823 824 824 825 826 827 827 827
760 763 765 768 771 775 778 781 784 786 788 790 791 793 794 795 797 799 800 802 803 804 806 807 808 810 812 813 814 815 816 818 819 819 820 820 821 822 822 823 823 823
755 757 760 763 767 771 775 778 780 783 785 786 788 790 791 793 794 795 796 798 799 801 802 803 805 807 808 809 811 812 813 815 815 816 817 817 817 818 818 819 819 820
750 754 757 760 764 767 771 774 776 779 781 783 785 787 788 789 790 791 793 794 796 797 798 800 802 804 805 806 807 809 810 811 811 812 813 813 814 814 815 816 816 817
748 751 754 757 761 764 767 770 772 775 777 779 781 783 784 786 787 788 790 791 793 794 795 797 799 800 801 802 803 804 805 806 807 808 809 810 810 811 812 813 813 814
745 748 751 754 757 760 763 766 769 772 774 775 777 778 780 782 784 786 787 788 789 790 792 794 795 795 796 797 798 800 801 802 803 804 805 807 808 808 809 810 810 811
741 744 747 750 752 755 758 761 764 768 770 771 773 774 776 778 780 782 783 784 786 787 788 790 790 791 791 792 794 795 797 799 800 801 802 804 805 806 806 806 807 807
737 740 743 745 748 751 754 757 761 764 765 767 769 770 772 774 776 777 778 780 782 783 784 785 785 786 787 789 790 791 794 796 797 798 800 801 802 802 803 803 803 804
733 736 739 742 744 747 751 754 758 759 761 763 765 767 769 771 771 773 775 776 778 779 779 780 780 781 783 785 786 788 790 793 794 796 797 797 798 799 799 800 800 800
729 732 735 738 741 744 748 751 753 755 757 760 762 765 766 767 767 769 770 772 773 774 774 775 776 777 779 781 783 784 787 789 791 793 793 794 795 795 796 796 796 797
724 728 731 734 737 741 744 747 749 751 753 756 759 761 761 762 763 765 766 767 769 770 771 771 771 773 775 777 779 781 783 786 788 789 790 791 791 791 792 792 792 793
721 724 727 730 734 737 739 741 743 745 748 751 754 756 757 759 760 761 762 763 765 766 767 767 767 768 771 773 775 778 781 783 784 785 786 787 787 788 788 788 789 789
717 720 723 726 729 732 734 736 738 741 744 747 750 752 753 754 755 756 757 759 761 762 763 763 763 765 768 770 772 775 778 779 781 781 782 783 783 784 784 784 785 784
712 715 718 721 724 727 729 732 734 737 740 743 745 747 748 749 751 752 754 756 757 758 759 760 760 763 766 768 770 773 774 776 777 778 778 778 779 780 780 779 779 780
708 711 714 716 719 722 725 727 730 733 736 739 741 743 744 746 749 751 752 752 753 755 756 758 759 761 764 766 767 770 771 772 774 774 774 774 775 776 775 775 775 776
703 706 709 712 715 717 720 723 726 729 732 735 737 739 741 743 745 747 748 749 750 752 754 756 758 760 762 762 764 766 768 769 770 769 769 770 771 771 770 770 771 772
Wind_Speed
39 38 36 35 34 34 36 37 36 35 35 34 33 33 34 33 31 28 27 26 26 25 24 23 22 23 23 21 20 20 21 21 20 20 19 17 15 18 20 18 16 16
40 38 37 35 34 32 33 35 36 35 35 35 35 34 33 33 32 30 29 28 28 27 26 25 24 23 24 24 22 21 22 23 22 21 21 19 17 17 21 21 18 17
40 39 38 37 36 35 33 34 35 35 35 35 35 34 33 33 33 32 30 29 29 29 28 27 26 25 25 25 25 24 24 24 24 23 22 21 19 18 20 22 21 19
41 40 39 39 38 37 35 33 34 35 36 35 35 34 33 33 33 33 32 31 30 30 30 29 28 26 25 26 27 26 26 26 25 24 24 23 21 20 19 21 22 22
41 40 40 39 38 37 35 34 35 35 36 36 35 34 33 33 33 34 34 33 31 31 31 31 30 29 27 27 27 28 28 27 26 26 26 25 24 23 21 20 21 23
39 39 39 38 37 36 35 35 35 35 35 36 35 34 33 33 34 34 35 35 33 32 32 32 32 31 30 29 29 30 30 30 28 27 28 28 27 25 24 22 22 23
39 39 38 38 37 36 35 35 35 34 35 35 35 34 34 34 35 35 36 36 35 34 33 32 33 33 32 32 32 32 32 31 31 30 29 30 29 28 26 25 25 24
40 39 38 38 37 36 36 36 35 35 35 35 35 36 35 35 35 36 36 36 36 35 34 33 34 34 34 33 33 33 33 33 32 32 32 32 31 30 30 29 28 27
39 38 38 38 37 37 37 37 37 36 35 35 37 38 37 36 36 36 36 37 36 36 35 35 35 35 35 35 35 35 34 34 34 34 34 33 33 33 33 31 31 31
37 37 37 37 37 37 38 38 37 36 35 36 37 37 38 38 38 37 37 37 37 36 36 36 36 36 36 36 36 36 36 36 35 35 35 35 36 35 35 34 34 34
37 36 36 37 37 37 37 37 37 36 36 36 36 36 37 38 38 38 37 37 38 38 38 38 38 38 38 38 38 38 38 37 37 36 36 37 37 37 36 36 36 36
38 38 38 39 39 37 37 36 36 36 36 36 36 36 37 37 38 38 38 39 40 40 40 40 40 39 39 39 39 39 38 38 38 37 37 37 38 38 38 37 38 38
40 41 40 40 39 39 38 37 37 37 37 37 37 37 36 37 37 38 39 40 41 41 41 41 41 40 40 40 40 39 39 38 38 38 38 38 38 39 39 39 39 39
41 41 40 39 39 39 39 38 38 38 38 38 38 37 37 37 38 39 40 40 40 41 41 41 40 40 40 40 40 40 39 39 40 39 39 39 39 39 39 39 39 39
39 38 38 38 38 38 39 39 39 38 38 38 38 39 39 38 38 39 39 39 40 40 41 40 39 40 41 42 42 41 41 41 40 40 40 40 39 39 38 38 38 39
37 37 37 37 37 38 39 39 39 38 38 39 39 40 40 40 39 38 38 39 40 40 40 39 39 40 43 44 44 43 42 41 40 40 40 39 39 38 37 38 38 39
38 37 37 38 39 39 39 40 40 39 39 39 40 40 40 40 39 38 38 39 39 40 40 40 41 42 44 45 46 45 44 42 40 40 39 38 38 37 37 38 38 39
37 37 37 38 39 40 40 40 40 39 39 39 39 40 40 40 40 40 40 39 39 40 40 41 42 44 45 46 46 46 46 43 41 39 38 37 36 37 38 38 37 38
38 37 37 38 38 39 39 38 38 39 40 40 39 39 38 38 40 40 40 40 39 39 40 42 44 45 46 46 46 47 46 45 42 39 38 37 37 37 38 38 38 38
38 37 38 38 38 38 37 37 38 39 40 39 38 37 37 38 39 40 40 41 41 41 42 42 43 45 45 46 46 46 46 45 44 41 38 38 38 38 38 38 39 38
38 38 38 38 38 38 37 38 39 39 39 39 37 37 38 40 40 39 40 41 42 43 42 41 43 45 44 45 46 46 45 45 45 43 40 38 39 39 39 40 40 39
37 37 37 37 37 37 38 39 39 39 40 39 37 37 38 38 39 39 40 40 41 42 42 42 44 44 44 44 45 45 44 44 44 44 41 40 39 39 39 40 40 40
38 37 37 37 37 37 38 39 39 40 39 38 37 37 37 37 39 40 40 40 40 40 41 43 44 43 42 43 43 42 43 43 43 43 42 41 41 41 40 40 40 41
39 38 38 38 37 37 38 39 39 39 38 37 37 37 37 38 38 38 38 38 39 40 41 42 42 41 39 39 40 40 41 42 42 42 41 41 41 41 41 41 41 42
40 40 39 39 38 38 39 39 38 38 37 37 37 37 37 37 35 34 35 37 38 38 39 39 38 36 34 35 37 38 39 40 41 40 39 39 39 39 41 42 41 41
40 41 40 39 39 39 39 39 38 37 36 36 36 36 36 35 34 33 33 35 35 35 34 34 34 32 31 31 32 33 35 38 40 41 39 38 38 38 39 39 39 39
Wind_Direction
203 204 204 204 204 204 202 202 202 203 206 209 211 213 213 214 215 213 213 213 214 216 218 221 223 223 222 224 224 222 221 222 222 223 226 231 227 215 210 209 207 207
203 204 205 206 207 207 205 204 204 204 207 210 214 217 217 215 215 214 213 214 215 218 220 222 224 224 223 223 224 224 224 225 225 226 228 231 228 219 215 213 211 211
202 204 204 206 208 209 209 207 206 206 208 211 214 218 218 217 216 215 215 214 216 218 220 223 225 226 225 223 224 226 226 227 227 228 229 230 230 227 222 217 216 216
202 204 205 207 209 210 211 210 209 210 210 211 214 217 218 218 217 216 216 216 217 218 220 222 225 228 227 224 224 226 227 229 230 230 229 229 230 231 229 224 221 220
202 204 206 208 210 211 211 212 213 212 212 213 215 217 218 218 217 216 216 216 217 219 219 221 224 227 227 224 224 226 227 228 230 230 231 230 231 231 231 230 228 225
203 205 207 208 209 211 211 213 214 214 214 214 215 217 218 218 217 216 215 215 217 218 219 220 222 224 226 224 224 226 227 228 230 230 231 232 233 233 232 232 233 232
204 205 207 208 209 211 212 213 214 214 215 214 215 216 217 218 217 216 216 216 216 218 219 220 221 222 224 224 224 226 227 229 230 230 231 232 233 234 233 233 234 235
205 205 206 208 209 211 212 213 214 215 215 214 214 216 216 216 216 216 216 216 216 218 219 220 221 221 222 222 223 225 226 228 229 229 230 230 231 233 233 233 233 235
205 205 206 208 209 211 213 214 214 215 215 214 215 215 215 216 216 215 215 216 216 218 220 221 221 222 222 221 222 224 225 226 227 227 228 228 229 231 232 232 232 234
205 205 206 208 209 212 214 215 215 215 215 215 215 215 216 216 217 216 216 216 217 219 220 221 222 222 221 221 223 224 225 226 226 226 227 228 229 231 232 231 230 232
205 205 206 208 210 212 214 216 216 216 216 216 216 216 216 217 217 218 218 218 219 220 221 222 222 222 221 221 223 224 226 227 227 227 228 229 230 232 232 231 231 232
204 205 207 209 210 212 214 216 217 217 217 217 217 216 216 217 217 218 218 219 221 222 222 223 223 222 222 222 223 224 225 226 228 229 230 230 231 232 233 232 232 234
204 205 207 208 210 211 213 215 216 217 218 218 218 218 217 217 218 218 219 220 221 222 222 223 223 222 222 223 224 224 224 225 227 229 231 232 233 233 234 234 234 236
205 206 207 208 210 211 213 214 216 217 217 218 218 218 218 218 218 219 219 220 221 222 223 223 222 222 223 223 224 224 225 225 226 228 230 232 233 234 234 235 236 237
206 206 207 208 209 211 213 214 215 216 217 218 218 219 219 219 220 220 220 220 222 223 224 223 222 222 223 224 224 224 225 226 227 227 229 231 233 235 235 236 236 238
206 206 207 208 209 211 213 214 215 216 217 217 218 219 219 220 220 221 221 221 222 223 224 224 223 225 226 226 226 225 225 226 227 228 229 230 232 234 236 237 238 239
206 206 206 207 209 211 213 214 215 215 216 218 218 219 219 220 220 221 221 222 223 224 225 224 225 227 228 228 228 228 227 226 228 230 230 230 232 233 236 238 239 240
206 206 206 207 209 210 212 214 214 215 217 218 218 219 219 219 220 220 221 222 223 225 226 226 227 229 229 230 230 230 229 228 228 231 232 233 233 234 236 239 240 241
206 206 207 208 210 211 213 213 214 216 217 218 219 219 219 220 221 221 221 222 223 225 226 227 229 230 231 231 232 233 232 230 229 231 233 234 235 236 237 239 241 242
205 206 207 209 210 211 212 213 214 217 218 219 220 220 220 221 222 222 222 222 223 225 227 229 230 232 232 232 233 234 234 232 231 231 233 236 237 238 239 240 242 243
204 205 207 208 209 210 211 213 215 217 218 219 219 220 221 222 223 223 224 223 223 225 228 230 232 233 233 234 234 235 235 235 233 232 233 236 238 240 241 242 243 244
203 204 206 207 208 208 210 212 214 216 217 217 218 220 222 224 224 225 226 225 225 225 227 231 234 234 234 235 236 236 236 235 234 234 234 236 239 241 242 244 245 246
203 203 204 206 207 207 209 212 213 216 216 216 216 219 221 223 224 226 226 227 226 225 226 230 234 235 235 235 237 236 235 235 234 234 235 237 240 242 243 245 246 247
203 203 203 205 206 207 209 212 213 215 216 215 216 218 221 223 225 226 228 228 228 227 227 229 233 235 236 236 237 237 236 235 234 234 236 237 240 243 245 246 247 248
203 203 204 205 205 207 210 212 213 215 215 215 216 219 222 225 226 228 229 230 231 231 231 231 233 235 236 236 237 237 237 237 235 235 236 238 241 243 246 248 249 250
202 203 204 205 206 208 210 212 213 214 214 214 216 218 222 224 226 228 230 232 233 234 234 233 233 234 236 236 236 236 236 237 236 234 236 238 241 244 246 249 251 252